Location: Hradec Kralove
(50.2170°N, 15.8330°E)
Time: 03:37:12
(UTC+01:00)

N. Korean satellite - Pass Details

Date: 05 December 2022
Orbit: 407 x 442 km, 97.3° (Epoch: 05 February)

Event Time Altitude Azimuth Distance (km) Brightness Sun altitude
Rises 17:27:00 0° 210° (SSW) 2,461 11.0 -13.9°
Reaches altitude 10° 17:29:49 10° 237° (WSW) 1,607 10.5 -14.4°
Maximum altitude 17:31:43 14° 270° (W) 1,388 10.0 -14.6°
Drops below altitude 10° 17:33:37 10° 304° (WNW) 1,628 9.8 -14.9°
Sets 17:36:31 0° 330° (NNW) 2,519 10.4 -15.4°
